,,PA_Meas_PMT16A,,PR_Meas_QMR101_102,,RH_Meas_QMH101,,SR_Meas_QMS101,,TA_Meas_QMH101,,GenWind,,GenWind,
time,status,PA,status,PR,status,RH,status,SR,status,TA,status,DirAvg,status,SpdAvg,
2009-11-28, 00:00:04,VALID,919.131,VALID,0,VALID,95.6129,VALID,0,VALID,19.3684,VALID,359,VALID,0.0457031,
2009-11-28, 00:01:04,VALID,919.128,VALID,0,VALID,95.7196,VALID,0,VALID,19.3489,VALID,359,VALID,0.423047,
2009-11-28, 00:02:04,VALID,919.106,VALID,0,VALID,95.8187,VALID,0,VALID,19.3489,VALID,359,VALID,0.651563,
2009-11-28, 00:03:04,VALID,919.062,VALID,0,VALID,95.8797,VALID,0,VALID,19.3294,VALID,359,VALID,0.587109,
2009-11-28, 00:04:04,VALID,919.056,VALID,0,VALID,96.0245,VALID,0,VALID,19.3503,VALID,359,VALID,0.697266,
2009-11-28, 00:05:04,VALID,919.02,VALID,0,VALID,96.0703,VALID,0,VALID,19.3294,VALID,359,VALID,0.360938,
2009-11-28, 00:06:04,VALID,918.976,VALID,0,VALID,96.0932,VALID,0,VALID,19.3503,VALID,359,VALID,0.803906,
2009-11-28, 00:07:04,VALID,918.944,VALID,0,VALID,96.116,VALID,0,VALID,19.3489,VALID,359,VALID,0.723828,
2009-11-28, 00:08:04,VALID,918.9,VALID,0,VALID,96.0017,VALID,0,VALID,19.3503,VALID,360,VALID,0.859375,
2009-11-28, 00:09:04,VALID,918.868,VALID,0,VALID,95.9483,VALID,0,VALID,19.3294,VALID,360,VALID,0.984766,
2009-11-28, 00:10:04,VALID,918.868,VALID,0,VALID,95.9788,VALID,0,VALID,19.3503,VALID,360,VALID,0.360938,
2009-11-28, 00:11:04,VALID,918.891,VALID,0,VALID,95.9559,VALID,0,VALID,19.3489,VALID,360,VALID,0.498437,
2009-11-28, 00:12:04,VALID,918.895,VALID,0,VALID,95.8721,VALID,0,VALID,19.3308,VALID,360,VALID,0.636328,
2009-11-28, 00:13:04,VALID,918.885,VALID,0,VALID,95.7196,VALID,0,VALID,19.2904,VALID,360,VALID,0.454688,
2009-11-28, 00:14:04,VALID,918.872,VALID,0,VALID,95.5976,VALID,0,VALID,19.2709,VALID,360,VALID,0.272656,
2009-11-28, 00:15:04,VALID,918.856,VALID,0,VALID,95.6739,VALID,0,VALID,19.2514,VALID,360,VALID,0.425,
2009-11-28, 00:16:04,VALID,918.816,VALID,0,VALID,95.773,VALID,0,VALID,19.2528,VALID,360,VALID,0.588281,
2009-11-28, 00:17:04,VALID,918.805,VALID,0,VALID,95.8035,VALID,0,VALID,19.2514,VALID,360,VALID,0.466797,
2009-11-28, 00:18:04,VALID,918.804,VALID,0,VALID,95.8263,VALID,0,VALID,19.2319,VALID,360,VALID,0.0601562,
2009-11-28, 00:19:04,VALID,918.855,VALID,0,VALID,95.8263,VALID,0,VALID,19.2528,VALID,360,VALID,0.216797,
2009-11-28, 00:20:04,VALID,918.819,VALID,0,VALID,95.8035,VALID,0,VALID,19.2319,VALID,360,VALID,0.468359,
2009-11-28, 00:21:04,VALID,918.829,VALID,0,VALID,95.7654,VALID,0,VALID,19.2514,VALID,360,VALID,0.590234,
2009-11-28, 00:22:04,VALID,918.865,VALID,0,VALID,95.7806,VALID,0,VALID,19.2709,VALID,360,VALID,0.427734,
2009-11-28, 00:23:04,VALID,918.888,VALID,0,VALID,95.6967,VALID,0,VALID,19.2918,VALID,360,VALID,0.229687,
2009-11-28, 00:24:04,VALID,918.906,VALID,0,VALID,95.59,VALID,0,VALID,19.2904,VALID,360,VALID,0.112109,
2009-11-28, 00:25:04,VALID,918.912,VALID,0,VALID,95.4757,VALID,0,VALID,19.3308,VALID,360,VALID,0.154297,
2009-11-28, 00:26:04,VALID,918.931,VALID,0,VALID,95.3994,VALID,0,VALID,19.3294,VALID,360,VALID,0.116797,
2009-11-28, 00:27:04,VALID,918.945,VALID,0,VALID,95.2012,VALID,0,VALID,19.3503,VALID,360,VALID,0,
2009-11-28, 00:28:04,VALID,918.927,VALID,0,VALID,94.9954,VALID,0,VALID,19.3503,VALID,360,VALID,0,
2009-11-28, 00:29:04,VALID,918.928,VALID,0,VALID,94.8429,VALID,0,VALID,19.3294,VALID,360,VALID,0,
2009-11-28, 00:30:04,VALID,918.9,VALID,0,VALID,94.8048,VALID,0,VALID,19.3698,VALID,360,VALID,0.205078,
2009-11-28, 00:31:04,VALID,918.926,VALID,0,VALID,94.7057,VALID,0,VALID,19.3698,VALID,360,VALID,0.340625,
2009-11-28, 00:32:04,VALID,918.896,VALID,0,VALID,94.6905,VALID,0,VALID,19.3294,VALID,360,VALID,0.546875,
2009-11-28, 00:33:04,VALID,918.868,VALID,0,VALID,94.7209,VALID,0,VALID,19.3698,VALID,360,VALID,0.541016,
2009-11-28, 00:34:04,VALID,918.882,VALID,0,VALID,94.7591,VALID,0,VALID,19.3503,VALID,360,VALID,0.549219,
2009-11-28, 00:35:04,VALID,918.856,VALID,0,VALID,94.6676,VALID,0,VALID,19.3099,VALID,360,VALID,0.635938,
2009-11-28, 00:36:04,VALID,918.819,VALID,0,VALID,94.7286,VALID,0,VALID,19.2918,VALID,360,VALID,0.571875,
2009-11-28, 00:37:04,VALID,918.818,VALID,0,VALID,94.7591,VALID,0,VALID,19.2319,VALID,360,VALID,0.485547,
2009-11-28, 00:38:04,VALID,918.807,VALID,0,VALID,94.82,VALID,0.107441,VALID,19.2139,VALID,360,VALID,0.479688,
2009-11-28, 00:39:04,VALID,918.751,VALID,0,VALID,94.9725,VALID,0,VALID,19.1929,VALID,360,VALID,0.723437,
2009-11-28, 00:40:04,VALID,918.757,VALID,0,VALID,95.1555,VALID,0,VALID,19.2139,VALID,360,VALID,0.730859,
2009-11-28, 00:41:04,VALID,918.763,VALID,0,VALID,95.0716,VALID,0,VALID,19.1929,VALID,360,VALID,0.680469,
2009-11-28, 00:42:04,VALID,918.696,VALID,0,VALID,93.9586,VALID,0,VALID,19.1149,VALID,360,VALID,0.593359,
2009-11-28, 00:43:04,VALID,918.692,VALID,0,VALID,94.1568,VALID,0,VALID,19.0579,VALID,360,VALID,0.609375,
2009-11-28, 00:44:04,VALID,918.645,VALID,0,VALID,95.0183,VALID,0,VALID,19.0175,VALID,360,VALID,0.582031,
2009-11-28, 00:45:04,VALID,918.609,VALID,0,VALID,95.4071,VALID,0.107441,VALID,18.9994,VALID,360,VALID,0.775,
2009-11-28, 00:46:04,VALID,918.587,VALID,0,VALID,95.5748,VALID,0,VALID,18.9994,VALID,360,VALID,0.815625,
2009-11-28, 00:47:04,VALID,918.555,VALID,0,VALID,95.4985,VALID,0,VALID,18.959,VALID,360,VALID,0.836719,
2009-11-28, 00:48:04,VALID,918.558,VALID,0,VALID,95.4909,VALID,0,VALID,18.959,VALID,360,VALID,0.925781,
2009-11-28, 00:49:04,VALID,918.546,VALID,0,VALID,95.6739,VALID,0.107441,VALID,18.9799,VALID,360,VALID,1.23633,
2009-11-28, 00:50:04,VALID,918.562,VALID,0,VALID,96.0169,VALID,0,VALID,19.0175,VALID,360,VALID,1.00039,
2009-11-28, 00:51:04,VALID,918.539,VALID,0,VALID,96.1236,VALID,0.107441,VALID,19.0175,VALID,360,VALID,1.16055,
2009-11-28, 00:52:04,VALID,918.529,VALID,0,VALID,96.1084,VALID,0,VALID,18.9785,VALID,360,VALID,1.06016,
2009-11-28, 00:53:04,VALID,918.524,VALID,0,VALID,96.1618,VALID,0,VALID,18.9799,VALID,360,VALID,0.817969,
2009-11-28, 00:54:04,VALID,918.535,VALID,0,VALID,96.2075,VALID,0,VALID,18.92,VALID,360,VALID,0.945313,
2009-11-28, 00:55:04,VALID,918.507,VALID,0,VALID,96.2533,VALID,0,VALID,18.9019,VALID,360,VALID,0.906641,
2009-11-28, 00:56:04,VALID,918.5,VALID,0,VALID,96.3752,VALID,0,VALID,18.8225,VALID,360,VALID,1.08633,
2009-11-28, 00:57:04,VALID,918.502,VALID,0,VALID,96.4896,VALID,0,VALID,18.8434,VALID,1,VALID,0.634375,
2009-11-28, 00:58:04,VALID,918.502,VALID,0,VALID,96.6192,VALID,0,VALID,18.8225,VALID,1,VALID,0.915625,
2009-11-28, 00:59:04,VALID,918.433,VALID,0,VALID,96.764,VALID,0,VALID,18.8434,VALID,1,VALID,0.903906,
2009-11-28, 01:00:04,VALID,918.416,VALID,0,VALID,96.8174,VALID,0,VALID,18.8434,VALID,1,VALID,0.793359,
2009-11-28, 01:01:04,VALID,918.419,VALID,0,VALID,96.8784,VALID,0,VALID,18.803,VALID,1,VALID,0.567187,
2009-11-28, 01:02:04,VALID,918.383,VALID,0,VALID,96.8936,VALID,0,VALID,18.803,VALID,2,VALID,0.902734,
2009-11-28, 01:03:04,VALID,918.375,VALID,0,VALID,96.9241,VALID,0,VALID,18.8434,VALID,2,VALID,1.19102,
2009-11-28, 01:04:04,VALID,918.362,VALID,0,VALID,96.8784,VALID,0,VALID,18.824,VALID,2,VALID,1.16523,
2009-11-28, 01:05:04,VALID,918.369,VALID,0,VALID,96.8631,VALID,0,VALID,18.824,VALID,2,VALID,1.17617,
2009-11-28, 01:06:04,VALID,918.369,VALID,0,VALID,96.7411,VALID,0,VALID,18.803,VALID,2,VALID,1.03008,
2009-11-28, 01:07:04,VALID,918.409,VALID,0,VALID,96.7488,VALID,0,VALID,18.8434,VALID,2,VALID,0.825781,
2009-11-28, 01:08:04,VALID,918.378,VALID,0,VALID,96.6649,VALID,0,VALID,18.8434,VALID,2,VALID,0.53125,
2009-11-28, 01:09:04,VALID,918.345,VALID,0,VALID,96.6725,VALID,0,VALID,18.8824,VALID,99,VALID,0.820703,
2009-11-28, 01:10:04,VALID,918.326,VALID,0,VALID,96.642,VALID,0,VALID,18.9019,VALID,148,VALID,0.984375,
2009-11-28, 01:11:04,VALID,918.301,VALID,0,VALID,96.5582,VALID,0,VALID,18.9214,VALID,148,VALID,0.421094,
2009-11-28, 01:12:04,VALID,918.279,VALID,0,VALID,96.4362,VALID,0,VALID,18.9019,VALID,148,VALID,0.364844,
2009-11-28, 01:13:04,VALID,918.241,VALID,0,VALID,96.3447,VALID,0,VALID,18.9214,VALID,148,VALID,0.528125,
2009-11-28, 01:14:04,VALID,918.198,VALID,0,VALID,96.2228,VALID,0,VALID,18.9214,VALID,148,VALID,0.583203,
2009-11-28, 01:15:04,VALID,918.174,VALID,0,VALID,96.1846,VALID,0,VALID,18.881,VALID,148,VALID,0.407422,
2009-11-28, 01:16:04,VALID,918.134,VALID,0,VALID,96.1465,VALID,0,VALID,18.881,VALID,148,VALID,0.479297,
2009-11-28, 01:17:04,VALID,918.109,VALID,0,VALID,96.0855,VALID,0,VALID,18.9019,VALID,148,VALID,0.475391,
2009-11-28, 01:18:04,VALID,918.107,VALID,0,VALID,96.1389,VALID,0,VALID,18.9019,VALID,148,VALID,0.862109,
2009-11-28, 01:19:04,VALID,918.094,VALID,0,VALID,96.0703,VALID,0,VALID,18.9019,VALID,148,VALID,0.971484,
2009-11-28, 01:20:04,VALID,918.143,VALID,0,VALID,96.0932,VALID,0,VALID,18.9019,VALID,148,VALID,0.634766,
2009-11-28, 01:21:04,VALID,918.154,VALID,0,VALID,96.0093,VALID,0,VALID,18.9019,VALID,148,VALID,0.642578,
2009-11-28, 01:22:04,VALID,918.184,VALID,0,VALID,95.9026,VALID,0,VALID,18.8615,VALID,148,VALID,0.708594,
2009-11-28, 01:23:04,VALID,918.196,VALID,0,VALID,95.7806,VALID,0,VALID,18.8434,VALID,148,VALID,0.537109,
2009-11-28, 01:24:04,VALID,918.227,VALID,0,VALID,95.8568,VALID,0,VALID,18.8434,VALID,148,VALID,0.834375,
2009-11-28, 01:25:04,VALID,918.199,VALID,0,VALID,95.9026,VALID,0,VALID,18.7835,VALID,85,VALID,0.564453,
2009-11-28, 01:26:04,VALID,918.22,VALID,0,VALID,95.9559,VALID,0,VALID,18.8045,VALID,85,VALID,0.852344,
2009-11-28, 01:27:04,VALID,918.197,VALID,0,VALID,95.5595,VALID,0,VALID,18.7655,VALID,85,VALID,0.473437,
2009-11-28, 01:28:04,VALID,918.202,VALID,0,VALID,95.4147,VALID,0,VALID,18.7265,VALID,85,VALID,0.237891,
2009-11-28, 01:29:04,VALID,918.197,VALID,0,VALID,95.5214,VALID,0,VALID,18.6875,VALID,85,VALID,0,
2009-11-28, 01:30:04,VALID,918.188,VALID,0,VALID,95.8873,VALID,0,VALID,18.707,VALID,85,VALID,0.481641,
2009-11-28, 01:31:04,VALID,918.178,VALID,0,VALID,96.0627,VALID,0,VALID,18.7265,VALID,85,VALID,0.830469,
2009-11-28, 01:32:04,VALID,918.169,VALID,0,VALID,96.0169,VALID,0,VALID,18.6861,VALID,85,VALID,0.560156,
2009-11-28, 01:33:04,VALID,918.169,VALID,0,VALID,95.9788,VALID,0,VALID,18.6875,VALID,85,VALID,0.677344,
2009-11-28, 01:34:04,VALID,918.119,VALID,0,VALID,95.9254,VALID,0,VALID,18.6875,VALID,85,VALID,0.693359,
2009-11-28, 01:35:04,VALID,918.103,VALID,0,VALID,96.0322,VALID,0,VALID,18.6875,VALID,85,VALID,0.54375,
2009-11-28, 01:36:04,VALID,918.079,VALID,0,VALID,96.1541,VALID,0,VALID,18.707,VALID,85,VALID,0.646484,
2009-11-28, 01:37:04,VALID,918.054,VALID,0,VALID,96.1846,VALID,0.107441,VALID,18.7265,VALID,85,VALID,0.494141,
2009-11-28, 01:38:04,VALID,918.066,VALID,0,VALID,96.2304,VALID,0,VALID,18.746,VALID,85,VALID,0.505078,
2009-11-28, 01:39:04,VALID,918.054,VALID,0,VALID,95.9331,VALID,0,VALID,18.7265,VALID,85,VALID,0.0539063,
2009-11-28, 01:40:04,VALID,918.042,VALID,0,VALID,95.4528,VALID,0,VALID,18.629,VALID,85,VALID,0.455469,
2009-11-28, 01:41:04,VALID,918.031,VALID,0,VALID,95.7654,VALID,0,VALID,18.629,VALID,85,VALID,0.788672,
2009-11-28, 01:42:04,VALID,918.024,VALID,0,VALID,95.8873,VALID,0,VALID,18.629,VALID,85,VALID,0.716406,
2009-11-28, 01:43:04,VALID,917.986,VALID,0,VALID,96.0017,VALID,0,VALID,18.6081,VALID,85,VALID,0.389453,
2009-11-28, 01:44:04,VALID,917.985,VALID,0,VALID,96.1084,VALID,0,VALID,18.6095,VALID,85,VALID,0.428906,
2009-11-28, 01:45:04,VALID,917.94,VALID,0,VALID,96.2304,VALID,0,VALID,18.629,VALID,85,VALID,0.480469,
2009-11-28, 01:46:04,VALID,917.912,VALID,0,VALID,95.6967,VALID,0,VALID,18.5705,VALID,85,VALID,0.384766,
2009-11-28, 01:47:04,VALID,917.878,VALID,0,VALID,95.8492,VALID,0,VALID,18.5511,VALID,85,VALID,0.377734,
2009-11-28, 01:48:04,VALID,917.849,VALID,0,VALID,96.1236,VALID,0,VALID,18.5705,VALID,85,VALID,0.167969,
2009-11-28, 01:49:04,VALID,917.849,VALID,0,VALID,96.1313,VALID,0,VALID,18.5496,VALID,85,VALID,0.1625,
2009-11-28, 01:50:04,VALID,917.84,VALID,0,VALID,96.0169,VALID,0,VALID,18.5316,VALID,85,VALID,0.0609375,
2009-11-28, 01:51:04,VALID,917.82,VALID,0,VALID,96.1694,VALID,0,VALID,18.5316,VALID,85,VALID,0.182422,
2009-11-28, 01:52:04,VALID,917.795,VALID,0,VALID,96.055,VALID,0,VALID,18.5121,VALID,85,VALID,0,
2009-11-28, 01:53:04,VALID,917.755,VALID,0,VALID,95.8263,VALID,0,VALID,18.4536,VALID,85,VALID,0.409375,
2009-11-28, 01:54:04,VALID,917.795,VALID,0,VALID,95.6053,VALID,0,VALID,18.3756,VALID,85,VALID,0.476563,
2009-11-28, 01:55:04,VALID,917.735,VALID,0,VALID,96.1389,VALID,0,VALID,18.3951,VALID,85,VALID,0.463281,
2009-11-28, 01:56:04,VALID,917.762,VALID,0,VALID,96.5506,VALID,0,VALID,18.4341,VALID,85,VALID,0.204688,
2009-11-28, 01:57:04,VALID,917.784,VALID,0,VALID,96.5811,VALID,0,VALID,18.4341,VALID,85,VALID,0.320313,
2009-11-28, 01:58:04,VALID,917.783,VALID,0,VALID,96.7259,VALID,0,VALID,18.4536,VALID,85,VALID,0.469922,
2009-11-28, 01:59:04,VALID,917.759,VALID,0,VALID,96.7564,VALID,0,VALID,18.4731,VALID,85,VALID,0.150391,
2009-11-28, 02:00:04,VALID,917.722,VALID,0,VALID,96.9775,VALID,0,VALID,18.5316,VALID,85,VALID,0.362109,
2009-11-28, 02:01:04,VALID,917.72,VALID,0,VALID,97.1223,VALID,0,VALID,18.5886,VALID,85,VALID,1.08945,
2009-11-28, 02:02:04,VALID,917.682,VALID,0,VALID,97.008,VALID,0,VALID,18.5705,VALID,85,VALID,1.17148,
2009-11-28, 02:03:04,VALID,917.721,VALID,0,VALID,97.0461,VALID,0,VALID,18.6095,VALID,85,VALID,1.06172,
2009-11-28, 02:04:04,VALID,917.727,VALID,0,VALID,97.0232,VALID,0,VALID,18.629,VALID,85,VALID,0.945313,
2009-11-28, 02:05:04,VALID,917.706,VALID,0,VALID,97.0613,VALID,0,VALID,18.6889,VALID,85,VALID,0.753125,
2009-11-28, 02:06:04,VALID,917.693,VALID,0,VALID,96.8326,VALID,0,VALID,18.6875,VALID,85,VALID,0.9375,
2009-11-28, 02:07:04,VALID,917.707,VALID,0,VALID,96.4896,VALID,0,VALID,18.59,VALID,85,VALID,1.26172,
2009-11-28, 02:08:04,VALID,917.664,VALID,0,VALID,96.5963,VALID,0,VALID,18.6304,VALID,28,VALID,1.44062,
2009-11-28, 02:09:04,VALID,917.673,VALID,0,VALID,96.6573,VALID,0,VALID,18.6875,VALID,28,VALID,1.29688,
2009-11-28, 02:10:04,VALID,917.664,VALID,0,VALID,96.4515,VALID,0,VALID,18.6875,VALID,27,VALID,0.651563,
2009-11-28, 02:11:04,VALID,917.644,VALID,0,VALID,96.3371,VALID,0,VALID,18.668,VALID,27,VALID,0.409766,
2009-11-28, 02:12:04,VALID,917.622,VALID,0,VALID,96.6573,VALID,0,VALID,18.7265,VALID,27,VALID,0.412109,
2009-11-28, 02:13:04,VALID,917.625,VALID,0,VALID,96.6573,VALID,0,VALID,18.785,VALID,27,VALID,0.214844,
2009-11-28, 02:14:04,VALID,917.629,VALID,0,VALID,96.5811,VALID,0,VALID,18.824,VALID,27,VALID,0.812891,
2009-11-28, 02:15:04,VALID,917.631,VALID,0,VALID,96.2456,VALID,0,VALID,18.8434,VALID,246,VALID,1.16367,
2009-11-28, 02:16:04,VALID,917.6,VALID,0,VALID,96.1541,VALID,0,VALID,18.9214,VALID,246,VALID,0.332812,
2009-11-28, 02:17:04,VALID,917.591,VALID,0,VALID,96.0169,VALID,0,VALID,18.9814,VALID,246,VALID,0.00195313,
2009-11-28, 02:18:04,VALID,917.568,VALID,0,VALID,95.59,VALID,0,VALID,18.9604,VALID,246,VALID,0,
2009-11-28, 02:19:04,VALID,917.599,VALID,0,VALID,95.3994,VALID,0,VALID,18.9799,VALID,246,VALID,0.439453,
2009-11-28, 02:20:04,VALID,917.595,VALID,0,VALID,95.529,VALID,0,VALID,18.9994,VALID,246,VALID,0.372266,
2009-11-28, 02:21:04,VALID,917.534,VALID,0,VALID,95.4757,VALID,0,VALID,19.0189,VALID,246,VALID,0.319531,
2009-11-28, 02:22:04,VALID,917.545,VALID,0,VALID,95.1555,VALID,0,VALID,18.9799,VALID,246,VALID,0.312891,
2009-11-28, 02:23:04,VALID,917.561,VALID,0,VALID,94.5227,VALID,0,VALID,18.9619,VALID,246,VALID,0.08125,
2009-11-28, 02:24:04,VALID,917.513,VALID,0,VALID,94.5609,VALID,0,VALID,18.881,VALID,246,VALID,0,
2009-11-28, 02:25:04,VALID,917.509,VALID,0,VALID,94.9954,VALID,0,VALID,18.8824,VALID,246,VALID,0,
2009-11-28, 02:26:04,VALID,917.446,VALID,0,VALID,94.9268,VALID,0,VALID,18.8434,VALID,246,VALID,0.505078,
2009-11-28, 02:27:04,VALID,917.438,VALID,0,VALID,94.9878,VALID,0,VALID,18.8045,VALID,246,VALID,0.00195313,
2009-11-28, 02:28:04,VALID,917.428,VALID,0,VALID,95.064,VALID,0,VALID,18.7655,VALID,246,VALID,0.101172,
2009-11-28, 02:29:04,VALID,917.437,VALID,0,VALID,94.6905,VALID,0,VALID,18.707,VALID,246,VALID,0.399609,
2009-11-28, 02:30:04,VALID,917.412,VALID,0,VALID,94.8963,VALID,0,VALID,18.668,VALID,246,VALID,0.225781,
2009-11-28, 02:31:04,VALID,917.401,VALID,0,VALID,95.186,VALID,0,VALID,18.6485,VALID,246,VALID,0.346875,
2009-11-28, 02:32:04,VALID,917.413,VALID,0,VALID,95.4985,VALID,0,VALID,18.6485,VALID,246,VALID,0.475391,
2009-11-28, 02:33:04,VALID,917.375,VALID,0,VALID,95.5824,VALID,0,VALID,18.6499,VALID,246,VALID,0.442187,
2009-11-28, 02:34:04,VALID,917.387,VALID,0,VALID,95.2088,VALID,0,VALID,18.6095,VALID,52,VALID,0.944922,
2009-11-28, 02:35:04,VALID,917.377,VALID,0,VALID,94.9573,VALID,0,VALID,18.59,VALID,52,VALID,0.976172,
2009-11-28, 02:36:04,VALID,917.385,VALID,0,VALID,95.0259,VALID,0,VALID,18.5705,VALID,51,VALID,1.35117,
2009-11-28, 02:37:04,VALID,917.381,VALID,0,VALID,95.5595,VALID,0,VALID,18.6499,VALID,16,VALID,1.35039,
2009-11-28, 02:38:04,VALID,917.405,VALID,0,VALID,95.4071,VALID,0,VALID,18.629,VALID,15,VALID,1.54453,
2009-11-28, 02:39:04,VALID,917.369,VALID,0,VALID,95.6739,VALID,0,VALID,18.668,VALID,6,VALID,1.65937,
2009-11-28, 02:40:04,VALID,917.394,VALID,0,VALID,95.9178,VALID,0,VALID,18.7265,VALID,356,VALID,1.43281,
2009-11-28, 02:41:04,VALID,917.367,VALID,0,VALID,95.7272,VALID,0,VALID,18.7655,VALID,350,VALID,1.35781,
2009-11-28, 02:42:04,VALID,917.416,VALID,0,VALID,95.3689,VALID,0,VALID,18.785,VALID,350,VALID,1.13086,
2009-11-28, 02:43:04,VALID,917.41,VALID,0,VALID,95.2317,VALID,0,VALID,18.8434,VALID,350,VALID,1.36836,
2009-11-28, 02:44:04,VALID,917.39,VALID,0,VALID,94.7362,VALID,0,VALID,18.8839,VALID,350,VALID,1.59883,
2009-11-28, 02:45:04,VALID,917.359,VALID,0,VALID,94.3626,VALID,0,VALID,18.9604,VALID,350,VALID,1.29648,
2009-11-28, 02:46:04,VALID,917.381,VALID,0,VALID,94.0806,VALID,0,VALID,19.0398,VALID,348,VALID,1.97969,
2009-11-28, 02:47:04,VALID,917.388,VALID,0,VALID,93.8214,VALID,0,VALID,19.0774,VALID,343,VALID,1.35156,
2009-11-28, 02:48:04,VALID,917.343,VALID,0,VALID,93.9967,VALID,0,VALID,19.1164,VALID,343,VALID,1.19375,
2009-11-28, 02:49:04,VALID,917.397,VALID,0,VALID,94.0653,VALID,0,VALID,19.1178,VALID,342,VALID,1.38984,
2009-11-28, 02:50:04,VALID,917.433,VALID,0,VALID,93.8824,VALID,0,VALID,19.0969,VALID,342,VALID,1.16719,
2009-11-28, 02:51:04,VALID,917.418,VALID,0,VALID,94.2026,VALID,0,VALID,19.1164,VALID,342,VALID,1.16914,
2009-11-28, 02:52:04,VALID,917.413,VALID,0,VALID,94.2559,VALID,0,VALID,19.0774,VALID,342,VALID,1.0293,
2009-11-28, 02:53:04,VALID,917.386,VALID,0,VALID,94.7362,VALID,0,VALID,19.0384,VALID,314,VALID,0.889844,
2009-11-28, 02:54:04,VALID,917.412,VALID,0,VALID,94.8353,VALID,0,VALID,19.0175,VALID,323,VALID,1.10781,
2009-11-28, 02:55:04,VALID,917.404,VALID,0,VALID,94.7514,VALID,0,VALID,19.0189,VALID,7,VALID,1.325,
2009-11-28, 02:56:04,VALID,917.39,VALID,0,VALID,94.5304,VALID,0,VALID,19.0774,VALID,4,VALID,1.09102,
2009-11-28, 02:57:04,VALID,917.358,VALID,0,VALID,94.2559,VALID,0,VALID,19.1359,VALID,4,VALID,0.341406,
2009-11-28, 02:58:04,VALID,917.362,VALID,0,VALID,94.0425,VALID,0,VALID,19.1749,VALID,11,VALID,1.27422,
2009-11-28, 02:59:04,VALID,917.326,VALID,0,VALID,94.2026,VALID,0,VALID,19.1554,VALID,15,VALID,1.24492,
2009-11-28, 03:00:04,VALID,917.318,VALID,0,VALID,94.1721,VALID,0,VALID,19.1554,VALID,356,VALID,1.62578,
2009-11-28, 03:01:04,VALID,917.299,VALID,0,VALID,94.0501,VALID,0,VALID,19.1749,VALID,355,VALID,0.974609,
2009-11-28, 03:02:04,VALID,917.289,VALID,0,VALID,94.1416,VALID,0,VALID,19.1958,VALID,355,VALID,1.23242,
2009-11-28, 03:03:04,VALID,917.289,VALID,0,VALID,94.3474,VALID,0,VALID,19.1763,VALID,9,VALID,1.15313,
2009-11-28, 03:04:04,VALID,917.29,VALID,0,VALID,94.3093,VALID,0,VALID,19.1749,VALID,26,VALID,1.31992,
2009-11-28, 03:05:04,VALID,917.296,VALID,0,VALID,94.2407,VALID,0,VALID,19.1734,VALID,26,VALID,1.3043,
2009-11-28, 03:06:04,VALID,917.317,VALID,0,VALID,94.2102,VALID,0,VALID,19.2153,VALID,2,VALID,1.35664,
2009-11-28, 03:07:04,VALID,917.345,VALID,0,VALID,94.1873,VALID,0,VALID,19.2139,VALID,4,VALID,1.32422,
2009-11-28, 03:08:04,VALID,917.345,VALID,0,VALID,94.2102,VALID,0,VALID,19.2334,VALID,20,VALID,1.35195,
2009-11-28, 03:09:04,VALID,917.377,VALID,0,VALID,94.1339,VALID,0,VALID,19.2334,VALID,20,VALID,1.23672,
2009-11-28, 03:10:04,VALID,917.38,VALID,0,VALID,94.1111,VALID,0,VALID,19.2319,VALID,20,VALID,1.08477,
2009-11-28, 03:11:04,VALID,917.421,VALID,0,VALID,93.8976,VALID,0,VALID,19.2918,VALID,5,VALID,1.4293,
2009-11-28, 03:12:04,VALID,917.414,VALID,0,VALID,93.7528,VALID,0,VALID,19.3113,VALID,14,VALID,1.17227,
2009-11-28, 03:13:04,VALID,917.409,VALID,0,VALID,93.6842,VALID,0,VALID,19.3503,VALID,20,VALID,1.66992,
2009-11-28, 03:14:04,VALID,917.426,VALID,0,VALID,93.6918,VALID,0,VALID,19.3698,VALID,356,VALID,1.56133,
2009-11-28, 03:15:04,VALID,917.444,VALID,0,VALID,93.5317,VALID,0,VALID,19.3893,VALID,11,VALID,2.12617,
2009-11-28, 03:16:04,VALID,917.447,VALID,0,VALID,93.5164,VALID,0,VALID,19.4283,VALID,25,VALID,1.37656,
2009-11-28, 03:17:04,VALID,917.447,VALID,0,VALID,93.4555,VALID,0,VALID,19.4074,VALID,335,VALID,1.7793,
2009-11-28, 03:18:04,VALID,917.489,VALID,0,VALID,93.5698,VALID,0,VALID,19.4283,VALID,354,VALID,1.8625,
2009-11-28, 03:19:04,VALID,917.482,VALID,0,VALID,93.4555,VALID,0,VALID,19.4074,VALID,344,VALID,1.29414,
2009-11-28, 03:20:04,VALID,917.474,VALID,0,VALID,93.4555,VALID,0,VALID,19.4283,VALID,22,VALID,1.92578,
2009-11-28, 03:21:04,VALID,917.515,VALID,0,VALID,93.6842,VALID,0,VALID,19.4283,VALID,24,VALID,1.5,
2009-11-28, 03:22:04,VALID,917.536,VALID,0,VALID,93.6003,VALID,0,VALID,19.4088,VALID,5,VALID,2.51875,
2009-11-28, 03:23:04,VALID,917.595,VALID,0,VALID,93.6537,VALID,0,VALID,19.4088,VALID,345,VALID,1.51836,
2009-11-28, 03:24:04,VALID,917.549,VALID,0,VALID,93.4783,VALID,0,VALID,19.4283,VALID,352,VALID,2.0457,
2009-11-28, 03:25:04,VALID,917.58,VALID,0,VALID,93.4402,VALID,0,VALID,19.4673,VALID,30,VALID,2.32266,
2009-11-28, 03:26:04,VALID,917.571,VALID,0,VALID,93.4707,VALID,0,VALID,19.4673,VALID,36,VALID,0.861719,
2009-11-28, 03:27:04,VALID,917.566,VALID,0,VALID,93.4936,VALID,0,VALID,19.4673,VALID,36,VALID,1.31836,
2009-11-28, 03:28:04,VALID,917.579,VALID,0,VALID,93.5317,VALID,0,VALID,19.4283,VALID,350,VALID,1.02461,
2009-11-28, 03:29:04,VALID,917.557,VALID,0,VALID,93.6232,VALID,0,VALID,19.4283,VALID,14,VALID,2.00234,
2009-11-28, 03:30:04,VALID,917.588,VALID,0,VALID,93.3106,VALID,0,VALID,19.4478,VALID,343,VALID,2.28281,
2009-11-28, 03:31:04,VALID,917.532,VALID,0,VALID,93.2954,VALID,0,VALID,19.4868,VALID,9,VALID,1.36523,
2009-11-28, 03:32:04,VALID,917.582,VALID,0,VALID,93.2801,VALID,0,VALID,19.4868,VALID,359,VALID,1.22383,
2009-11-28, 03:33:04,VALID,917.567,VALID,0,VALID,93.0285,VALID,0,VALID,19.5063,VALID,324,VALID,1.35117,
2009-11-28, 03:34:04,VALID,917.586,VALID,0,VALID,92.8685,VALID,0,VALID,19.5243,VALID,323,VALID,1.46836,
2009-11-28, 03:35:04,VALID,917.595,VALID,0,VALID,92.7236,VALID,0,VALID,19.5453,VALID,359,VALID,1.80547,
2009-11-28, 03:36:04,VALID,917.576,VALID,0,VALID,92.5102,VALID,0,VALID,19.6038,VALID,304,VALID,1.02852,
2009-11-28, 03:37:04,VALID,917.561,VALID,0,VALID,92.4949,VALID,0,VALID,19.6038,VALID,305,VALID,1.23047,
2009-11-28, 03:38:04,VALID,917.525,VALID,0,VALID,92.5635,VALID,0,VALID,19.6038,VALID,305,VALID,0.66875,
2009-11-28, 03:39:04,VALID,917.557,VALID,0,VALID,92.6093,VALID,0,VALID,19.6233,VALID,305,VALID,0.831641,
2009-11-28, 03:40:04,VALID,917.523,VALID,0,VALID,92.7007,VALID,0,VALID,19.5843,VALID,305,VALID,0.649609,
2009-11-28, 03:41:04,VALID,917.542,VALID,0,VALID,92.7389,VALID,0,VALID,19.5633,VALID,305,VALID,0.935547,
2009-11-28, 03:42:04,VALID,917.533,VALID,0,VALID,92.777,VALID,0,VALID,19.5648,VALID,305,VALID,0.578125,
2009-11-28, 03:43:04,VALID,917.536,VALID,0,VALID,92.8608,VALID,0,VALID,19.5438,VALID,305,VALID,0.578125,
2009-11-28, 03:44:04,VALID,917.535,VALID,0,VALID,92.838,VALID,0,VALID,19.5438,VALID,344,VALID,1.06211,
2009-11-28, 03:45:04,VALID,917.531,VALID,0,VALID,93.0362,VALID,0.107441,VALID,19.5453,VALID,344,VALID,0.696484,
2009-11-28, 03:46:04,VALID,917.531,VALID,0,VALID,93.059,VALID,0,VALID,19.5063,VALID,344,VALID,0.695313,